Year,Month,Day,Hour,Minute,Value (Times are PST for temperature in C)
2011,03,21,00,00,5.60
2011,03,21,00,01,5.60
2011,03,21,00,02,5.60
2011,03,21,00,03,5.60
2011,03,21,00,04,5.60
2011,03,21,00,05,5.60
2011,03,21,00,06,5.60
2011,03,21,00,07,5.60
2011,03,21,00,08,5.60
2011,03,21,00,09,5.60
2011,03,21,00,10,5.60
2011,03,21,00,11,5.60
2011,03,21,00,12,5.60
2011,03,21,00,13,5.60
2011,03,21,00,14,5.60
2011,03,21,00,15,5.60
2011,03,21,00,16,5.60
2011,03,21,00,17,5.60
2011,03,21,00,18,5.60
2011,03,21,00,19,5.60
2011,03,21,09,22,4.80
2011,03,21,09,23,4.80
2011,03,21,09,24,4.80
2011,03,21,09,25,4.90
2011,03,21,09,26,4.90
2011,03,21,09,27,4.90
2011,03,21,09,28,4.90
2011,03,21,09,29,4.90
2011,03,21,09,30,4.90
2011,03,21,09,31,4.90
2011,03,21,09,32,4.90
2011,03,21,09,33,4.90
2011,03,21,09,34,4.90
2011,03,21,09,35,4.90
2011,03,21,09,36,4.90
2011,03,21,09,37,4.90
2011,03,21,09,38,4.90
2011,03,21,09,39,4.90
2011,03,21,09,40,4.90
2011,03,21,09,41,4.90
2011,03,21,09,42,4.90
2011,03,21,09,43,4.90
2011,03,21,09,44,4.90
2011,03,21,09,45,4.90
2011,03,21,09,46,4.90
2011,03,21,09,47,4.90
2011,03,21,09,48,4.90
2011,03,21,09,49,4.90
2011,03,21,09,50,4.90
2011,03,21,09,51,4.90
2011,03,21,09,52,4.90
2011,03,21,09,53,4.90
2011,03,21,09,54,4.90
2011,03,21,09,55,4.90
2011,03,21,09,56,5.00
2011,03,21,09,57,5.00
2011,03,21,09,58,5.00
2011,03,21,09,59,5.00
2011,03,21,10,00,5.00
2011,03,21,10,01,5.10
2011,03,21,10,02,5.10
2011,03,21,10,03,5.10
2011,03,21,10,04,5.10
2011,03,21,10,05,5.10
2011,03,21,10,06,5.10
2011,03,21,10,07,5.10
2011,03,21,10,08,5.10
2011,03,21,10,09,5.10
2011,03,21,10,10,5.10
2011,03,21,10,11,5.10
2011,03,21,10,12,5.10
2011,03,21,10,13,5.10
2011,03,21,10,14,5.20
2011,03,21,10,15,5.20
2011,03,21,10,16,5.20
2011,03,21,10,17,5.30
2011,03,21,10,18,5.30
2011,03,21,10,19,5.30
2011,03,21,10,20,5.30
2011,03,21,10,21,5.30
2011,03,21,10,22,5.30
2011,03,21,10,23,5.30
2011,03,21,10,24,5.30
2011,03,21,10,25,5.30
2011,03,21,10,26,5.30
2011,03,21,10,27,5.30
2011,03,21,10,28,5.30
2011,03,21,10,29,5.30
2011,03,21,10,30,5.30
2011,03,21,10,31,5.30
2011,03,21,10,32,5.40
2011,03,21,10,33,5.40
2011,03,21,10,34,5.40
2011,03,21,10,35,5.50
2011,03,21,10,36,5.50
2011,03,21,10,37,5.60
2011,03,21,10,38,5.60
2011,03,21,10,39,5.60
2011,03,21,10,40,5.70
2011,03,21,10,41,5.70
2011,03,21,10,42,5.80
2011,03,21,10,43,5.80
2011,03,21,10,44,5.80
2011,03,21,10,45,5.80
2011,03,21,10,46,5.80
2011,03,21,10,47,5.90
2011,03,21,10,48,5.90
2011,03,21,10,49,5.90
2011,03,21,10,50,5.90
2011,03,21,10,51,6.00
2011,03,21,10,52,6.00
2011,03,21,10,53,6.00
2011,03,21,10,54,6.10
2011,03,21,10,55,6.00
2011,03,21,10,56,6.00
2011,03,21,10,57,6.10
2011,03,21,10,58,6.10
2011,03,21,10,59,6.10
2011,03,21,11,00,6.10
2011,03,21,11,01,6.10
2011,03,21,11,02,6.20
2011,03,21,11,03,6.20
2011,03,21,11,04,6.10
2011,03,21,11,05,6.10
2011,03,21,11,06,6.10
2011,03,21,11,07,6.10
2011,03,21,11,08,6.10
2011,03,21,11,09,6.10
2011,03,21,11,10,6.20
2011,03,21,11,11,6.20
2011,03,21,11,12,6.20
2011,03,21,11,13,6.20
2011,03,21,11,14,6.20
2011,03,21,11,15,6.20
2011,03,21,11,16,6.20
2011,03,21,11,17,6.20
2011,03,21,11,18,6.20
2011,03,21,11,19,6.20
2011,03,21,11,20,6.20
2011,03,21,11,21,6.20
2011,03,21,11,22,6.20
2011,03,21,11,23,6.20
2011,03,21,11,24,6.20
2011,03,21,11,25,6.20
2011,03,21,11,26,6.20
2011,03,21,11,27,6.20
2011,03,21,11,28,6.20
2011,03,21,11,29,6.20
2011,03,21,11,30,6.20
2011,03,21,11,31,6.20
2011,03,21,11,32,6.20
2011,03,21,11,33,6.20
2011,03,21,11,34,6.10
2011,03,21,11,35,6.10
2011,03,21,11,36,6.10
2011,03,21,11,37,6.10
2011,03,21,11,38,6.10
2011,03,21,11,39,6.10
2011,03,21,11,40,6.10
2011,03,21,11,41,6.10
2011,03,21,11,42,6.10
2011,03,21,11,43,6.20
2011,03,21,11,44,6.20
2011,03,21,11,45,6.20
2011,03,21,11,46,6.20
2011,03,21,11,47,6.20
2011,03,21,11,48,6.20
2011,03,21,11,49,6.20
2011,03,21,11,50,6.30
2011,03,21,11,51,6.30
2011,03,21,11,52,6.30
2011,03,21,11,53,6.30
2011,03,21,11,54,6.20
2011,03,21,11,55,6.20
2011,03,21,11,56,6.20
2011,03,21,11,57,6.20
2011,03,21,11,58,6.20
2011,03,21,11,59,6.20
2011,03,21,12,00,6.20
2011,03,21,12,01,6.30
2011,03,21,12,02,6.30
2011,03,21,12,03,6.30
2011,03,21,12,04,6.30
2011,03,21,12,05,6.30
2011,03,21,12,06,6.30
2011,03,21,12,07,6.30
2011,03,21,12,08,6.30
2011,03,21,12,09,6.30
2011,03,21,12,10,6.40
2011,03,21,12,11,6.40
2011,03,21,12,12,6.40
2011,03,21,12,13,6.40
2011,03,21,12,14,6.40
2011,03,21,12,15,6.40
2011,03,21,12,16,6.40
2011,03,21,12,17,6.50
2011,03,21,12,18,6.50
2011,03,21,12,19,6.50
2011,03,21,12,20,6.50
2011,03,21,12,21,6.50
2011,03,21,12,22,6.60
2011,03,21,12,23,6.50
2011,03,21,12,24,6.50
2011,03,21,12,25,6.50
2011,03,21,12,26,6.60
2011,03,21,12,27,6.60
2011,03,21,12,28,6.60
2011,03,21,12,29,6.60
2011,03,21,12,30,6.60
2011,03,21,12,31,6.60
2011,03,21,12,32,6.60
2011,03,21,12,33,6.60
2011,03,21,12,34,6.60
2011,03,21,12,35,6.60
2011,03,21,12,36,6.60
2011,03,21,12,37,6.60
2011,03,21,12,38,6.70
2011,03,21,12,39,6.70
2011,03,21,12,40,6.70
2011,03,21,12,41,6.70
2011,03,21,12,42,6.70
2011,03,21,12,43,6.70
2011,03,21,12,44,6.70
2011,03,21,12,45,6.70
2011,03,21,12,46,6.60
2011,03,21,12,47,6.70
2011,03,21,12,48,6.70
2011,03,21,12,49,6.70
2011,03,21,12,50,6.70
2011,03,21,12,51,6.70
2011,03,21,12,52,6.70
2011,03,21,12,53,6.70
2011,03,21,12,54,6.70
2011,03,21,12,55,6.70
2011,03,21,12,56,6.60
2011,03,21,12,57,6.60
2011,03,21,12,58,6.60
2011,03,21,12,59,6.60
2011,03,21,13,00,6.60
2011,03,21,13,01,6.50
2011,03,21,13,02,6.50
2011,03,21,13,03,6.50
2011,03,21,13,04,6.50
2011,03,21,13,05,6.50
2011,03,21,13,06,6.60
2011,03,21,13,07,6.60
2011,03,21,13,08,6.60
2011,03,21,13,09,6.60
2011,03,21,13,10,6.70
2011,03,21,13,11,6.70
2011,03,21,13,12,6.70
2011,03,21,13,13,6.70
2011,03,21,13,14,6.70
2011,03,21,13,15,6.70
2011,03,21,13,16,6.70
2011,03,21,13,17,6.80
2011,03,21,13,18,6.80
2011,03,21,13,19,6.80
2011,03,21,13,20,6.80
2011,03,21,13,21,6.80
2011,03,21,13,22,6.80
2011,03,21,13,23,6.80
2011,03,21,13,24,6.80
2011,03,21,13,25,6.80
2011,03,21,13,26,6.80
2011,03,21,13,27,6.70
2011,03,21,13,28,6.70
2011,03,21,13,29,6.60
2011,03,21,13,30,6.60
2011,03,21,13,31,6.50
2011,03,21,13,32,6.50
2011,03,21,13,33,6.40
2011,03,21,13,34,6.40
2011,03,21,13,35,6.40
2011,03,21,13,36,6.40
2011,03,21,13,37,6.30
2011,03,21,13,38,6.30
2011,03,21,13,39,6.40
2011,03,21,13,40,6.40
2011,03,21,13,41,6.40
2011,03,21,13,42,6.40
2011,03,21,13,43,6.40
2011,03,21,13,44,6.40
2011,03,21,13,45,6.40
2011,03,21,13,46,6.50
2011,03,21,13,47,6.50
2011,03,21,13,48,6.60
2011,03,21,13,49,6.60
2011,03,21,13,50,6.60
2011,03,21,13,51,6.70
2011,03,21,13,52,6.70
2011,03,21,13,53,6.70
2011,03,21,13,54,6.70
2011,03,21,13,55,6.70
2011,03,21,13,56,6.70
2011,03,21,13,57,6.70
2011,03,21,13,58,6.70
2011,03,21,13,59,6.70
2011,03,21,14,00,6.80
2011,03,21,14,01,6.80
2011,03,21,14,02,6.80
2011,03,21,14,03,6.80
2011,03,21,14,04,6.80
2011,03,21,14,05,6.80
2011,03,21,14,06,6.80
2011,03,21,14,07,6.80
2011,03,21,14,08,6.80
2011,03,21,14,09,6.80
2011,03,21,14,10,6.80
2011,03,21,14,11,6.80
2011,03,21,14,12,6.80
2011,03,21,14,13,6.90
2011,03,21,14,14,6.90
2011,03,21,14,15,6.90
2011,03,21,14,16,7.00
2011,03,21,14,17,7.00
2011,03,21,14,18,7.00
2011,03,21,14,19,7.00
2011,03,21,14,20,7.10
2011,03,21,14,21,7.10
2011,03,21,14,22,7.10
2011,03,21,14,23,7.10
2011,03,21,14,24,7.10
2011,03,21,14,25,7.10
2011,03,21,14,26,7.10
2011,03,21,14,27,7.10
2011,03,21,14,28,7.10
2011,03,21,14,29,7.10
2011,03,21,14,30,7.10
2011,03,21,14,31,7.10
2011,03,21,14,32,7.10
2011,03,21,14,33,7.10
2011,03,21,14,34,7.10
2011,03,21,14,35,7.10
2011,03,21,14,36,7.10
2011,03,21,14,37,7.10
2011,03,21,14,38,7.10
2011,03,21,14,39,7.10
2011,03,21,14,40,7.10
2011,03,21,14,41,7.10
2011,03,21,14,42,7.10
2011,03,21,14,43,7.10
2011,03,21,14,44,7.10
2011,03,21,14,45,7.10
2011,03,21,14,46,7.10
2011,03,21,14,47,7.10
2011,03,21,14,48,7.10
2011,03,21,14,49,7.20
2011,03,21,14,50,7.20
2011,03,21,14,51,7.20
2011,03,21,14,52,7.20
2011,03,21,14,53,7.20
2011,03,21,14,54,7.20
2011,03,21,14,55,7.20
2011,03,21,14,56,7.20
2011,03,21,14,57,7.20
2011,03,21,14,58,7.20
2011,03,21,14,59,7.20
2011,03,21,15,00,7.10
2011,03,21,15,01,7.10
2011,03,21,15,02,7.10
2011,03,21,15,03,7.00
2011,03,21,15,04,7.00
2011,03,21,15,05,7.00
2011,03,21,15,06,6.90
2011,03,21,15,07,6.90
2011,03,21,15,08,6.90
2011,03,21,15,09,6.90
2011,03,21,15,10,6.80
2011,03,21,15,11,6.80
2011,03,21,15,12,6.80
2011,03,21,15,13,6.70
2011,03,21,15,14,6.70
2011,03,21,15,15,6.70
2011,03,21,15,16,6.70
2011,03,21,15,17,6.70
2011,03,21,15,18,6.70
2011,03,21,15,19,6.70
2011,03,21,15,20,6.70
2011,03,21,15,21,6.70
2011,03,21,15,22,6.70
2011,03,21,15,23,6.70
2011,03,21,15,24,6.70
2011,03,21,15,25,6.70
2011,03,21,15,26,6.70
2011,03,21,15,27,6.70
2011,03,21,15,28,6.70
2011,03,21,15,29,6.70
2011,03,21,15,30,6.70
2011,03,21,15,31,6.70
2011,03,21,15,32,6.80
2011,03,21,15,33,6.80
2011,03,21,15,34,6.80
2011,03,21,15,35,6.80
2011,03,21,15,36,6.90
2011,03,21,15,37,6.90
2011,03,21,15,38,6.90
2011,03,21,15,39,6.90
2011,03,21,15,40,6.90
2011,03,21,15,41,7.00
2011,03,21,15,42,7.00
2011,03,21,15,43,7.10
2011,03,21,15,44,7.10
2011,03,21,15,45,7.10
2011,03,21,15,46,7.20
2011,03,21,15,47,7.20
2011,03,21,15,48,7.20
2011,03,21,15,49,7.20
2011,03,21,15,50,7.20
2011,03,21,15,51,7.20
2011,03,21,15,52,7.20
2011,03,21,15,53,7.20
2011,03,21,15,54,7.20
2011,03,21,15,55,7.20
2011,03,21,15,56,7.20
2011,03,21,15,57,7.30
2011,03,21,15,58,7.30
2011,03,21,15,59,7.40
2011,03,21,16,00,7.40
2011,03,21,16,01,7.40
2011,03,21,16,02,7.40
2011,03,21,16,03,7.40
2011,03,21,16,04,7.40
2011,03,21,16,05,7.40
2011,03,21,16,06,7.40
2011,03,21,16,07,7.40
2011,03,21,16,08,7.40
2011,03,21,16,09,7.40
2011,03,21,16,10,7.50
2011,03,21,16,11,7.50
2011,03,21,16,12,7.60
2011,03,21,16,13,7.60
2011,03,21,16,14,7.60
2011,03,21,16,15,7.70
2011,03,21,16,16,7.70
2011,03,21,16,17,7.70
2011,03,21,16,18,7.70
2011,03,21,16,19,7.70
2011,03,21,16,20,7.70
2011,03,21,16,21,7.80
2011,03,21,16,22,7.80
2011,03,21,16,23,7.80
2011,03,21,16,24,7.80
2011,03,21,16,25,7.80
2011,03,21,16,26,7.90
2011,03,21,16,27,7.90
2011,03,21,16,28,7.90
2011,03,21,16,29,7.90
2011,03,21,16,30,8.00
2011,03,21,16,31,8.00
2011,03,21,16,32,8.00
2011,03,21,16,33,8.10
2011,03,21,16,34,8.10
2011,03,21,16,35,8.20
2011,03,21,16,36,8.20
2011,03,21,16,37,8.20
2011,03,21,16,38,8.20
2011,03,21,16,39,8.20
2011,03,21,16,40,8.20
2011,03,21,16,41,8.20
2011,03,21,16,42,8.20
2011,03,21,16,43,8.20
2011,03,21,16,44,8.20
2011,03,21,16,45,8.20
2011,03,21,16,46,8.20
2011,03,21,16,47,8.20
2011,03,21,16,48,8.20
2011,03,21,16,49,8.20
2011,03,21,16,50,8.20
2011,03,21,16,51,8.20
2011,03,21,16,52,8.20
2011,03,21,16,53,8.20
2011,03,21,16,54,8.20
2011,03,21,16,55,8.20
2011,03,21,16,56,8.20
2011,03,21,16,57,8.20
2011,03,21,16,58,8.20
2011,03,21,16,59,8.20
2011,03,21,17,00,8.30
2011,03,21,17,01,8.30
2011,03,21,17,02,8.30
2011,03,21,17,03,8.30
2011,03,21,17,04,8.30
2011,03,21,17,05,8.30
2011,03,21,17,06,8.30
2011,03,21,17,07,8.30
2011,03,21,17,08,8.30
2011,03,21,17,09,8.40
2011,03,21,17,10,8.40
2011,03,21,17,11,8.40
2011,03,21,17,12,8.40
2011,03,21,17,13,8.40
2011,03,21,17,14,8.40
2011,03,21,17,15,8.40
2011,03,21,17,16,8.40
2011,03,21,17,17,8.40
2011,03,21,17,18,8.40
2011,03,21,17,19,8.40
2011,03,21,17,20,8.40
2011,03,21,17,21,8.40
2011,03,21,17,22,8.40
2011,03,21,17,23,8.30
2011,03,21,17,24,8.30
2011,03,21,17,25,8.30
2011,03,21,17,26,8.30
2011,03,21,17,27,8.30
2011,03,21,17,28,8.30
2011,03,21,17,29,8.30
2011,03,21,17,30,8.30
2011,03,21,17,31,8.30
2011,03,21,17,32,8.30
2011,03,21,17,33,8.30
2011,03,21,17,34,8.30
2011,03,21,17,35,8.20
2011,03,21,17,36,8.20
2011,03,21,17,37,8.20
2011,03,21,17,38,8.20
2011,03,21,17,39,8.20
2011,03,21,17,40,8.20
2011,03,21,17,41,8.30
2011,03,21,17,42,8.30
2011,03,21,17,43,8.30
2011,03,21,17,44,8.30
2011,03,21,17,45,8.30
2011,03,21,17,46,8.40
2011,03,21,17,47,8.40
2011,03,21,17,48,8.40
2011,03,21,17,49,8.40
2011,03,21,17,50,8.40
2011,03,21,17,51,8.50
2011,03,21,17,52,8.50
2011,03,21,17,53,8.60
2011,03,21,17,54,8.60
2011,03,21,17,55,8.60
2011,03,21,17,56,8.60
2011,03,21,17,57,8.60
2011,03,21,17,58,8.60
2011,03,21,17,59,8.60
2011,03,21,18,00,8.60
2011,03,21,18,01,8.60
2011,03,21,18,02,8.60
2011,03,21,18,03,8.60
2011,03,21,18,04,8.60
2011,03,21,18,05,8.60
2011,03,21,18,06,8.50
2011,03,21,18,07,8.50
2011,03,21,18,08,8.40
2011,03,21,18,09,8.40
2011,03,21,18,10,8.40
2011,03,21,18,11,8.30
2011,03,21,18,12,8.30
2011,03,21,18,13,8.30
2011,03,21,18,14,8.30
2011,03,21,18,15,8.30
2011,03,21,18,16,8.20
2011,03,21,18,17,8.20
2011,03,21,18,18,8.20
2011,03,21,18,19,8.20
2011,03,21,18,20,8.20
2011,03,21,18,21,8.20
2011,03,21,18,22,8.10
2011,03,21,18,23,8.10
2011,03,21,18,24,8.10
2011,03,21,18,25,8.00
2011,03,21,18,26,8.00
2011,03,21,18,27,8.00
2011,03,21,18,28,8.00
2011,03,21,18,29,8.00
2011,03,21,18,30,8.00
2011,03,21,18,31,8.00
2011,03,21,18,32,8.00
2011,03,21,18,33,7.90
2011,03,21,18,34,7.90
2011,03,21,18,35,7.90
2011,03,21,18,36,7.80
2011,03,21,18,37,7.80
2011,03,21,18,38,7.80
2011,03,21,18,39,7.80
2011,03,21,18,40,7.70
2011,03,21,18,41,7.70
2011,03,21,18,42,7.70
2011,03,21,18,43,7.70
2011,03,21,18,44,7.60
2011,03,21,18,45,7.60
2011,03,21,18,46,7.60
2011,03,21,18,47,7.50
2011,03,21,18,48,7.50
2011,03,21,18,49,7.40
2011,03,21,18,50,7.40
2011,03,21,18,51,7.40
2011,03,21,18,52,7.40
2011,03,21,18,53,7.40
2011,03,21,18,54,7.40
2011,03,21,18,55,7.40
2011,03,21,18,56,7.40
2011,03,21,18,57,7.40
2011,03,21,18,58,7.40
2011,03,21,18,59,7.40
2011,03,21,19,00,7.40
2011,03,21,19,01,7.40
2011,03,21,19,02,7.40
2011,03,21,19,03,7.40
2011,03,21,19,04,7.40
2011,03,21,19,05,7.40
2011,03,21,19,06,7.40
2011,03,21,19,07,7.40
2011,03,21,19,08,7.40
2011,03,21,19,09,7.40
2011,03,21,19,10,7.30
2011,03,21,19,11,7.30
2011,03,21,19,12,7.30
2011,03,21,19,13,7.20
2011,03,21,19,14,7.20
2011,03,21,19,15,7.20
2011,03,21,19,16,7.20
2011,03,21,19,17,7.20
2011,03,21,19,18,7.10
2011,03,21,19,19,7.10
2011,03,21,19,20,7.10
2011,03,21,19,21,7.00
2011,03,21,19,22,6.90
2011,03,21,19,23,6.80
2011,03,21,19,24,6.80
2011,03,21,19,25,6.80
2011,03,21,19,26,6.70
2011,03,21,19,27,6.70
2011,03,21,19,28,6.70
2011,03,21,19,29,6.60
2011,03,21,19,30,6.50
2011,03,21,19,31,6.50
2011,03,21,19,32,6.40
2011,03,21,19,33,6.40
2011,03,21,19,34,6.40
2011,03,21,19,35,6.40
2011,03,21,19,36,6.30
2011,03,21,19,37,6.30
2011,03,21,19,38,6.30
2011,03,21,19,39,6.30
2011,03,21,19,40,6.20
2011,03,21,19,41,6.20
2011,03,21,19,42,6.10
2011,03,21,19,43,6.10
2011,03,21,19,44,6.10
2011,03,21,19,45,6.00
2011,03,21,19,46,5.90
2011,03,21,19,47,5.90
2011,03,21,19,48,5.90
2011,03,21,19,49,5.80
2011,03,21,19,50,5.80
2011,03,21,19,51,5.80
2011,03,21,19,52,5.70
2011,03,21,19,53,5.70
2011,03,21,19,54,5.70
2011,03,21,19,55,5.60
2011,03,21,19,56,5.60
2011,03,21,19,57,5.60
2011,03,21,19,58,5.60
2011,03,21,19,59,5.50
2011,03,21,20,00,5.50
2011,03,21,20,01,5.50
2011,03,21,20,02,5.50
2011,03,21,20,03,5.40
2011,03,21,20,04,5.40
2011,03,21,20,05,5.40
2011,03,21,20,06,5.40
2011,03,21,20,07,5.40
2011,03,21,20,08,5.40
2011,03,21,20,09,5.40
2011,03,21,20,10,5.40
2011,03,21,20,11,5.30
2011,03,21,20,12,5.30
2011,03,21,20,13,5.30
2011,03,21,20,14,5.40
2011,03,21,20,15,5.40
2011,03,21,20,16,5.40
2011,03,21,20,17,5.40
2011,03,21,20,18,5.40
2011,03,21,20,19,5.40
2011,03,21,20,20,5.40
2011,03,21,20,21,5.40
2011,03,21,20,22,5.40
2011,03,21,20,23,5.40
2011,03,21,20,24,5.40
2011,03,21,20,25,5.40
2011,03,21,20,26,5.50
2011,03,21,20,27,5.60
2011,03,21,20,28,5.60
2011,03,21,20,29,5.70
2011,03,21,20,30,5.70
2011,03,21,20,31,5.70
2011,03,21,20,32,5.70
2011,03,21,20,33,5.70
2011,03,21,20,34,5.70
2011,03,21,20,35,5.70
2011,03,21,20,36,5.70
2011,03,21,20,37,5.70
2011,03,21,20,38,5.70
2011,03,21,20,39,5.70
2011,03,21,20,40,5.60
2011,03,21,20,41,5.60
2011,03,21,20,42,5.60
2011,03,21,20,43,5.60
2011,03,21,20,44,5.50
2011,03,21,20,45,5.50
2011,03,21,20,46,5.50
2011,03,21,20,47,5.40
2011,03,21,20,48,5.40
2011,03,21,20,49,5.40
2011,03,21,20,50,5.40
2011,03,21,20,51,5.40
2011,03,21,20,52,5.40
2011,03,21,20,53,5.40
2011,03,21,20,54,5.40
2011,03,21,20,55,5.40
2011,03,21,20,56,5.40
2011,03,21,20,57,5.40
2011,03,21,20,58,5.40
2011,03,21,20,59,5.40
2011,03,21,21,00,5.40
2011,03,21,21,01,5.30
2011,03,21,21,02,5.30
2011,03,21,21,03,5.30
2011,03,21,21,04,5.30
2011,03,21,21,05,5.20
2011,03,21,21,06,5.20
2011,03,21,21,07,5.20
2011,03,21,21,08,5.20
2011,03,21,21,09,5.10
2011,03,21,21,10,5.10
2011,03,21,21,11,5.10
2011,03,21,21,12,5.10
2011,03,21,21,13,5.10
2011,03,21,21,14,5.00
2011,03,21,21,15,5.00
2011,03,21,21,16,4.90
2011,03,21,21,17,4.90
2011,03,21,21,18,4.90
2011,03,21,21,19,4.80
2011,03,21,21,20,4.80
2011,03,21,21,21,4.80
2011,03,21,21,22,4.80
2011,03,21,21,23,4.90
2011,03,21,21,24,4.90
2011,03,21,21,25,4.90
2011,03,21,21,26,4.90
2011,03,21,21,27,4.90
2011,03,21,21,28,4.90
2011,03,21,21,29,4.90
2011,03,21,21,30,4.90
2011,03,21,21,31,4.90
2011,03,21,21,32,4.90
2011,03,21,21,33,4.90
2011,03,21,21,34,5.00
2011,03,21,21,35,5.10
2011,03,21,21,36,5.10
2011,03,21,21,37,5.10
2011,03,21,21,38,5.10
2011,03,21,21,39,5.10
2011,03,21,21,40,5.10
2011,03,21,21,41,5.10
2011,03,21,21,42,5.10
2011,03,21,21,43,5.20
2011,03,21,21,44,5.20
2011,03,21,21,45,5.20
2011,03,21,21,46,5.20
2011,03,21,21,47,5.30
2011,03,21,21,48,5.30
2011,03,21,21,49,5.30
2011,03,21,21,50,5.30
2011,03,21,21,51,5.20
2011,03,21,21,52,5.20
2011,03,21,21,53,5.20
2011,03,21,21,54,5.20
2011,03,21,21,55,5.20
2011,03,21,21,56,5.20
2011,03,21,21,57,5.20
2011,03,21,21,58,5.20
2011,03,21,21,59,5.20
2011,03,21,22,00,5.20
2011,03,21,22,01,5.20
2011,03,21,22,02,5.20
2011,03,21,22,03,5.20
2011,03,21,22,04,5.10
2011,03,21,22,05,5.10
2011,03,21,22,06,5.10
2011,03,21,22,07,5.10
2011,03,21,22,08,5.10
2011,03,21,22,09,5.10
2011,03,21,22,10,5.10
2011,03,21,22,11,5.10
2011,03,21,22,12,5.00
2011,03,21,22,13,5.00
2011,03,21,22,14,5.00
2011,03,21,22,15,5.00
2011,03,21,22,16,4.90
2011,03,21,22,17,4.90
2011,03,21,22,18,4.90
2011,03,21,22,19,4.90
2011,03,21,22,20,4.90
2011,03,21,22,21,4.80
2011,03,21,22,22,4.80
2011,03,21,22,23,4.80
2011,03,21,22,24,4.80
2011,03,21,22,25,4.80
2011,03,21,22,26,4.80
2011,03,21,22,27,4.70
2011,03,21,22,28,4.70
2011,03,21,22,29,4.70
2011,03,21,22,30,4.70
2011,03,21,22,31,4.60
2011,03,21,22,32,4.60
2011,03,21,22,33,4.60
2011,03,21,22,34,4.60
2011,03,21,22,35,4.60
2011,03,21,22,36,4.50
2011,03,21,22,37,4.50
2011,03,21,22,38,4.50
2011,03,21,22,39,4.40
2011,03,21,22,40,4.40
2011,03,21,22,41,4.40
2011,03,21,22,42,4.40
2011,03,21,22,43,4.40
2011,03,21,22,44,4.30
2011,03,21,22,45,4.30
2011,03,21,22,46,4.30
2011,03,21,22,47,4.30
2011,03,21,22,48,4.30
2011,03,21,22,49,4.30
2011,03,21,22,50,4.20
2011,03,21,22,51,4.20
2011,03,21,22,52,4.20
2011,03,21,22,53,4.20
2011,03,21,22,54,4.20
2011,03,21,22,55,4.20
2011,03,21,22,56,4.20
2011,03,21,22,57,4.10
2011,03,21,22,58,4.10
2011,03,21,22,59,4.10
2011,03,21,23,00,4.10
2011,03,21,23,01,4.00
2011,03,21,23,02,4.00
2011,03,21,23,03,4.00
2011,03,21,23,04,3.90
2011,03,21,23,05,3.90
2011,03,21,23,06,3.80
2011,03,21,23,07,3.80
2011,03,21,23,08,3.80
2011,03,21,23,09,3.80
2011,03,21,23,10,3.80
2011,03,21,23,11,3.70
2011,03,21,23,12,3.70
2011,03,21,23,13,3.70
2011,03,21,23,14,3.70
2011,03,21,23,15,3.70
2011,03,21,23,16,3.70
2011,03,21,23,17,3.80
2011,03,21,23,18,3.80
2011,03,21,23,19,3.80
2011,03,21,23,20,3.90
2011,03,21,23,21,3.90
2011,03,21,23,22,4.00
2011,03,21,23,23,4.00
2011,03,21,23,24,4.10
2011,03,21,23,25,4.10
2011,03,21,23,26,4.10
2011,03,21,23,27,4.10
2011,03,21,23,28,4.20
2011,03,21,23,29,4.20
2011,03,21,23,30,4.20
2011,03,21,23,31,4.20
2011,03,21,23,32,4.20
2011,03,21,23,33,4.20
2011,03,21,23,34,4.20
2011,03,21,23,35,4.20
2011,03,21,23,36,4.20
2011,03,21,23,37,4.20
2011,03,21,23,38,4.30
2011,03,21,23,39,4.30
2011,03,21,23,40,4.30
2011,03,21,23,41,4.30
2011,03,21,23,42,4.30
2011,03,21,23,43,4.40
2011,03,21,23,44,4.40
2011,03,21,23,45,4.40
2011,03,21,23,46,4.40
2011,03,21,23,47,4.50
2011,03,21,23,48,4.50
2011,03,21,23,49,4.50
2011,03,21,23,50,4.50
2011,03,21,23,51,4.60
2011,03,21,23,52,4.60
2011,03,21,23,53,4.60
2011,03,21,23,54,4.60
2011,03,21,23,55,4.60
2011,03,21,23,56,4.60
2011,03,21,23,57,4.60
2011,03,21,23,58,4.60
2011,03,21,23,59,4.60
